When you browse on this site, cookies collect data to enhance your experience and personalize the content and advertising you see.
Visit our Privacy Policy to learn more. By continuing to use the site, you agree to this use of cookies and data.
  • In Hungary
  • List of Countries
  • For 7 days
  • Water Temperature
  • Satellite Maps
  • Weather Map
  • News
  • Weather Widgets
  • user-avatar
    Login

    Hourly Weather Belmont

    Today, 20 June, Thursday

    Time Temperature Precipitation Wind Pressure Humidity
    00:00 +16°C° 0 mm 3 mps 756 mmHg 87%
    01:00 +16°C° 0 mm 3 mps 756 mmHg 87%
    02:00 +16°C° 0 mm 3 mps 755 mmHg 87%
    03:00 +16°C° 0 mm 3 mps 755 mmHg 87%
    04:00 +14°C° 0 mm 3 mps 755 mmHg 87%
    05:00 +16°C° 0 mm 3 mps 755 mmHg 85%
    06:00 +16°C° 0 mm 3 mps 755 mmHg 82%
    07:00 +16°C° 0 mm 3 mps 755 mmHg 80%
    08:00 +18°C° 0 mm 3 mps 755 mmHg 74%
    09:00 +19°C° 0 mm 3 mps 755 mmHg 67%
    10:00 +20°C° 0 mm 3 mps 755 mmHg 61%
    11:00 +21°C° 0 mm 3 mps 755 mmHg 59%
    12:00 +21°C° 0 mm 3 mps 755 mmHg 56%
    13:00 +22°C° 0 mm 3 mps 755 mmHg 54%
    14:00 +22°C° 0 mm 3 mps 754 mmHg 54%
    15:00 +21°C° 0 mm 3 mps 754 mmHg 55%
    16:00 +21°C° 0 mm 3 mps 754 mmHg 56%
    17:00 +20°C° 0 mm 3 mps 753 mmHg 59%
    18:00 +19°C° 0 mm 3 mps 753 mmHg 62%
    19:00 +17°C° 0 mm 2 mps 753 mmHg 65%
    20:00 +17°C° 0 mm 2 mps 753 mmHg 69%
    21:00 +16°C° 0 mm 2 mps 753 mmHg 72%
    22:00 +15°C° 0 mm 2 mps 753 mmHg 76%
    23:00 +15°C° 0 mm 2 mps 753 mmHg 77%

    Tomorrow, 21 June, Friday

    Time Temperature Precipitation Wind Pressure Humidity
    00:00 +14°C° 0 mm 2 mps 753 mmHg 79%
    01:00 +14°C° 0 mm 2 mps 753 mmHg 80%
    02:00 +14°C° 0 mm 2 mps 753 mmHg 80%
    03:00 +14°C° 0 mm 1 mps 753 mmHg 80%
    04:00 +14°C° 0 mm 1 mps 753 mmHg 79%
    05:00 +15°C° 0 mm 1 mps 753 mmHg 75%
    06:00 +16°C° 0 mm 1 mps 754 mmHg 71%
    07:00 +18°C° 0 mm 1 mps 754 mmHg 67%
    08:00 +19°C° 0 mm 2 mps 754 mmHg 61%
    09:00 +20°C° 0 mm 2 mps 754 mmHg 55%
    10:00 +23°C° 0 mm 2 mps 754 mmHg 49%
    11:00 +22°C° 0 mm 3 mps 754 mmHg 47%
    12:00 +24°C° 0 mm 3 mps 754 mmHg 46%
    13:00 +25°C° 0 mm 4 mps 754 mmHg 44%
    14:00 +23°C° 0 mm 4 mps 754 mmHg 44%
    15:00 +23°C° 0 mm 4 mps 754 mmHg 44%
    16:00 +22°C° 0 mm 4 mps 753 mmHg 45%
    17:00 +21°C° 0 mm 3 mps 754 mmHg 49%
    18:00 +20°C° 0 mm 3 mps 754 mmHg 53%
    19:00 +18°C° 0 mm 2 mps 754 mmHg 58%
    20:00 +18°C° 0 mm 2 mps 754 mmHg 60%
    21:00 +18°C° 0 mm 1 mps 754 mmHg 62%
    22:00 +16°C° 0 mm 1 mps 754 mmHg 64%
    23:00 +16°C° 0 mm 1 mps 754 mmHg 64%

    Day after tomorrow, 22 June, Saturday

    Time Temperature Precipitation Wind Pressure Humidity
    00:00 +16°C° 0 mm 1 mps 754 mmHg 64%
    01:00 +16°C° 0 mm 1 mps 754 mmHg 65%
    02:00 +15°C° 0 mm 1 mps 754 mmHg 66%
    03:00 +15°C° 0 mm 1 mps 754 mmHg 66%
    04:00 +15°C° 0 mm 1 mps 754 mmHg 67%
    05:00 +16°C° 0 mm 1 mps 754 mmHg 63%
    06:00 +17°C° 0 mm 0 mps 754 mmHg 58%
    07:00 +18°C° 0 mm 0 mps 755 mmHg 53%
    08:00 +22°C° 0 mm 1 mps 755 mmHg 48%
    09:00 +24°C° 0 mm 1 mps 755 mmHg 43%
    10:00 +27°C° 0 mm 2 mps 756 mmHg 38%
    11:00 +27°C° 0 mm 2 mps 756 mmHg 39%
    12:00 +27°C° 0 mm 2 mps 756 mmHg 39%
    13:00 +28°C° 0 mm 3 mps 756 mmHg 39%
    14:00 +27°C° 0 mm 3 mps 755 mmHg 40%
    15:00 +26°C° 0 mm 3 mps 755 mmHg 41%
    16:00 +26°C° 0 mm 3 mps 755 mmHg 43%
    17:00 +24°C° 0 mm 3 mps 755 mmHg 47%
    18:00 +23°C° 0 mm 2 mps 755 mmHg 50%
    19:00 +20°C° 0 mm 2 mps 755 mmHg 54%
    20:00 +21°C° 0 mm 1 mps 755 mmHg 56%
    21:00 +20°C° 0 mm 1 mps 756 mmHg 57%
    22:00 +19°C° 0 mm 1 mps 756 mmHg 58%
    23:00 +19°C° 0 mm 1 mps 756 mmHg 59%

    23 June, Sunday

    Time Temperature Precipitation Wind Pressure Humidity
    00:00 +19°C° 0 mm 1 mps 756 mmHg 59%
    01:00 +18°C° 0 mm 1 mps 755 mmHg 60%
    02:00 +18°C° 0 mm 1 mps 755 mmHg 60%
    03:00 +18°C° 0 mm 1 mps 755 mmHg 60%
    04:00 +18°C° 0 mm 1 mps 755 mmHg 60%
    05:00 +19°C° 0 mm 1 mps 755 mmHg 57%
    06:00 +20°C° 0 mm 1 mps 756 mmHg 54%
    07:00 +22°C° 0 mm 1 mps 756 mmHg 51%
    08:00 +24°C° 0 mm 1 mps 756 mmHg 46%
    09:00 +26°C° 0 mm 1 mps 756 mmHg 42%
    10:00 +28°C° 0 mm 1 mps 756 mmHg 37%
    11:00 +28°C° 0 mm 2 mps 756 mmHg 37%
    12:00 +29°C° 0 mm 3 mps 756 mmHg 36%
    13:00 +29°C° 0 mm 3 mps 756 mmHg 36%
    14:00 +28°C° 0 mm 3 mps 756 mmHg 37%
    15:00 +28°C° 0 mm 3 mps 755 mmHg 38%
    16:00 +27°C° 0 mm 3 mps 755 mmHg 39%
    17:00 +26°C° 0 mm 3 mps 755 mmHg 43%
    18:00 +24°C° 0 mm 2 mps 755 mmHg 47%
    19:00 +23°C° 0 mm 2 mps 755 mmHg 52%
    20:00 +22°C° 0 mm 1 mps 755 mmHg 55%
    21:00 +21°C° 0 mm 1 mps 755 mmHg 57%
    22:00 +20°C° 0 mm 1 mps 755 mmHg 60%
    23:00 +19°C° 0 mm 1 mps 755 mmHg 61%

    24 June, Monday

    Time Temperature Precipitation Wind Pressure Humidity
    00:00 +19°C° 0 mm 1 mps 755 mmHg 62%
    01:00 +18°C° 0 mm 1 mps 754 mmHg 64%
    02:00 +18°C° 0 mm 1 mps 754 mmHg 65%
    03:00 +16°C° 0 mm 1 mps 754 mmHg 67%
    04:00 +16°C° 0 mm 1 mps 754 mmHg 68%
    05:00 +18°C° 0 mm 1 mps 754 mmHg 65%
    06:00 +19°C° 0 mm 1 mps 754 mmHg 62%
    07:00 +20°C° 0 mm 1 mps 754 mmHg 59%
    08:00 +22°C° 0 mm 1 mps 754 mmHg 55%
    09:00 +23°C° 0 mm 2 mps 754 mmHg 50%
    10:00 +25°C° 0 mm 2 mps 754 mmHg 46%
    11:00 +25°C° 0 mm 2 mps 754 mmHg 46%
    12:00 +26°C° 0 mm 3 mps 754 mmHg 45%
    13:00 +26°C° 0 mm 4 mps 754 mmHg 45%
    14:00 +25°C° 0 mm 4 mps 753 mmHg 46%
    15:00 +25°C° 0 mm 4 mps 753 mmHg 47%
    16:00 +23°C° 0 mm 4 mps 753 mmHg 48%
    17:00 +21°C° 0 mm 4 mps 753 mmHg 52%
    18:00 +20°C° 0 mm 4 mps 753 mmHg 56%
    19:00 +19°C° 0 mm 3 mps 753 mmHg 60%
    20:00 +18°C° 0 mm 3 mps 753 mmHg 63%
    21:00 +17°C° 0 mm 3 mps 753 mmHg 66%
    22:00 +16°C° 0 mm 3 mps 754 mmHg 69%
    23:00 +16°C° 0 mm 3 mps 754 mmHg 70%

    25 June, Tuesday

    Time Temperature Precipitation Wind Pressure Humidity
    00:00 +16°C° 0 mm 3 mps 754 mmHg 71%
    01:00 +16°C° 0 mm 3 mps 753 mmHg 72%
    02:00 +14°C° 0 mm 3 mps 754 mmHg 73%
    03:00 +14°C° 0 mm 3 mps 754 mmHg 73%
    04:00 +14°C° 0 mm 3 mps 754 mmHg 74%
    05:00 +14°C° 0 mm 3 mps 754 mmHg 71%
    06:00 +16°C° 0 mm 3 mps 754 mmHg 67%
    07:00 +17°C° 0 mm 3 mps 754 mmHg 63%
    08:00 +18°C° 0 mm 4 mps 755 mmHg 59%
    09:00 +19°C° 0 mm 4 mps 755 mmHg 55%
    10:00 +21°C° 0 mm 5 mps 755 mmHg 52%
    11:00 +21°C° 0 mm 5 mps 755 mmHg 51%
    12:00 +21°C° 0 mm 5 mps 755 mmHg 51%
    13:00 +21°C° 0 mm 5 mps 755 mmHg 51%
    14:00 +21°C° 0 mm 5 mps 755 mmHg 54%
    15:00 +20°C° 0 mm 6 mps 755 mmHg 56%
    16:00 +20°C° 0 mm 6 mps 755 mmHg 59%
    17:00 +19°C° 0 mm 5 mps 755 mmHg 63%
    18:00 +17°C° 0 mm 5 mps 755 mmHg 68%
    19:00 +16°C° 0 mm 5 mps 756 mmHg 72%
    20:00 +15°C° 0 mm 4 mps 756 mmHg 75%
    21:00 +14°C° 0 mm 4 mps 756 mmHg 79%
    22:00 +14°C° 0 mm 3 mps 757 mmHg 82%
    23:00 +13°C° 0 mm 3 mps 757 mmHg 83%
    Show more